This demonstration page uses our WeatherBlox Daily Observations layout. Learn more.

Left ArrowRight Arrow

39.92423, -83.80882

Hourly Observations for March 15, 2022

Temp ( °F °C ) Dew Point ( °F °C ) Humidity (%) Winds ( mph kmh ) Pressure ( in mb ) Visibility ( mi km ) Precip ( " mm )
12:56 am 00:56 Clear 47 8.3 30 -1.1 52 52 SSW 8 13 30.23 1024 10 16 0.00 0.00
1:56 am 01:56 Clear 46 7.8 30 -1.1 54 54 SSW 5 7 30.23 1024 10 16 0.00 0.00
2:56 am 02:56 Clear 46 7.8 29 -1.7 51 51 SSW 3 6 30.24 1024 10 16 0.00 0.00
3:56 am 03:56 Clear 45 7.2 29 -1.7 54 54 SSW 5 7 30.22 1023 10 16 0.00 0.00
4:56 am 04:56 Mostly Clear 45 7.2 31 -0.6 58 58 SSW 8 13 30.22 1023 10 16 0.00 0.00
5:56 am 05:56 Cloudy 46 7.8 32 0 58 58 SSW 8 13 30.22 1023 10 16 0.00 0.00
6:56 am 06:56 Cloudy 46 7.8 32 0 58 58 SSW 5 7 30.23 1024 10 16 0.00 0.00
7:56 am 07:56 Cloudy 46 7.8 33 0.6 61 61 SW 6 9 30.24 1024 10 16 0.00 0.00
8:56 am 08:56 Cloudy 47 8.3 34 1.1 61 61 SW 3 6 30.24 1024 10 16 0.00 0.00
9:56 am 09:56 Cloudy 51 10.6 33 0.6 50 50 SSW 6 9 30.24 1024 10 16 0.00 0.00
10:56 am 10:56 Cloudy 51 10.6 35 1.7 54 54 SSW 5 7 30.25 1024 10 16 0.00 0.00
11:56 am 11:56 Mostly Sunny 56 13.3 36 2.2 47 47 SSW 10 17 30.24 1024 10 16 0.00 0.00
12:56 pm 12:56 Mostly Sunny 61 16.1 35 1.7 38 38 SW 13 20 30.23 1024 10 16 0.00 0.00
1:56 pm 13:56 Sunny 62 16.7 38 3.3 41 41 WSW 12 19 30.20 1023 10 16 0.00 0.00
2:56 pm 14:56 Mostly Sunny 64 17.8 39 3.9 40 40 WSW 15 24 30.18 1022 10 16 0.00 0.00
3:56 pm 15:56 Cloudy 63 17.2 40 4.4 43 43 WSW 15 24 30.16 1021 10 16 0.00 0.00
4:56 pm 16:56 Mostly Cloudy 64 17.8 39 3.9 40 40 SW 14 22 30.14 1021 10 16 0.00 0.00
5:56 pm 17:56 Mostly Cloudy 63 17.2 39 3.9 41 41 W 16 26 30.14 1021 10 16 0.00 0.00
6:56 pm 18:56 Sunny 62 16.7 40 4.4 44 44 WSW 9 15 30.15 1021 10 16 0.00 0.00
7:56 pm 19:56 Clear 57 13.9 39 3.9 51 51 WSW 6 9 30.16 1021 10 16 0.00 0.00
8:56 pm 20:56 Clear 55 12.8 38 3.3 53 53 WSW 6 9 30.17 1022 10 16 0.00 0.00
9:56 pm 21:56 Clear 50 10 39 3.9 66 66 SSW 3 6 30.18 1022 10 16 0.00 0.00
10:56 pm 22:56 Clear 45 7.2 38 3.3 77 77 S 3 6 30.17 1022 10 16 0.00 0.00
11:56 pm 23:56 Clear 44 6.7 39 3.9 83 83 Calm 30.17 1022 10 16 0.00 0.00

Powered by AerisWeather